Regional Weather Roundup
Issued by NWS

Current Version | Previous Version | Text Only | Print | Product List | Glossary On
Versions: 1 2 3 4 5 6 7 8 9 10 11 12 13 14 15 16 17 18 19 20 21 22 23 24 25 26 27 28 29 30 31 32 33 34 35 36 37 38 39 40 41 42 43 44 45 46 47 48 49 50
000
ASUS43 KDMX 241507
RWRIA

WEATHER ROUNDUP FOR IOWA
NATIONAL WEATHER SERVICE DES MOINES IA
1000 AM CDT THU JUL 24 2014

NOTE: "FAIR" INDICATES FEW OR NO CLOUDS BELOW 12,000 FEET WITH NO
SIGNIFICANT WEATHER AND/OR OBSTRUCTIONS TO VISIBILITY.

* - THESE STATIONS ARE NOT NWS STATIONS...THUS NOT UNDER NWS
QUALITY CONTROL.  THEY ALSO DO NOT REPORT WEATHER SUCH
AS PRECIPITATION OR FOG.

IAZ001>003-012>014-020>022-031>034-043>046-241600-
   NORTHWEST IOWA

CITY           SKY/WX    TMP DP  RH WIND       PRES   REMARKS
CARROLL *      MOSUNNY   72  61  68 SW5       30.19R
CHEROKEE *     LGT RAIN  66  63  88 S5        30.19F
DENISON *      PTSUNNY   70  61  73 W5        30.21R
LE MARS *      LGT RAIN  64  63  94 SE22G30   30.01F
ORANGE CITY *  LGT RAIN  64  61  88 S18G32    29.99F
SHELDON *      CLOUDY    66  61  82 SE14G24   30.05F
SIOUX CITY     LGT RAIN  65  63  93 SE8       30.15F
SPENCER        CLOUDY    69  61  75 S9        30.16F
STORM LAKE *   SUNNY     68  63  83 W6        30.22R
$$

IAZ055>058-069>071-079>083-090>094-241600-
   SOUTHWEST IOWA

CITY           SKY/WX    TMP DP  RH WIND       PRES   REMARKS
ATLANTIC *     SUNNY     72  61  68 S8        30.17R
AUDUBON *      SUNNY     75  64  69 S6        30.19R
CLARINDA *     SUNNY     73  61  64 S8G14     30.17S
COUNCIL BLFS * SUNNY     72  63  73 S10       30.15R
CRESTON *      MOSUNNY   72  61  68 S7        30.17R
HARLAN  *      MOSUNNY   72  63  73 CALM      30.21R
LAMONI         SUNNY     72  59  63 S6        30.17S
RED OAK *      SUNNY     73  61  64 S9        30.16R
SHENANDOAH *   SUNNY     75  61  60 SE10      30.15S
$$

IAZ047>049-059>061-072>074-084-241600-
   CENTRAL IOWA

CITY           SKY/WX    TMP DP  RH WIND       PRES   REMARKS
AMES           MOSUNNY   73  61  65 SE3       30.16R
ANKENY *       SUNNY     73  61  64 SE5       30.16R
CHARITON *     SUNNY     73  59  60 SE9       30.17R
DES MOINES     CLOUDY    75  62  64 VRB5      30.16R
GRINNELL*      SUNNY     73  59  60 E5        30.18S
KNOXVILLE *    SUNNY     72  61  68 E6        30.15S
MARSHALLTOWN   SUNNY     72  61  68 S5        30.16F
PELLA *        SUNNY     73  61  64 SE7       30.17F
PERRY *          N/A     72  63  73 S6        30.17R
$$

IAZ004>006-015-016-023>025-035-036-241600-
   NORTH CENTRAL IOWA

CITY           SKY/WX    TMP DP  RH WIND       PRES   REMARKS
ALGONA *       SUNNY     73  63  68 SW8       30.19R
CLARION *      SUNNY     73  61  64 SW6       30.17R
ESTHERVILLE    CLOUDY    70  61  73 SW8       30.16S
FORT DODGE *   PTSUNNY   72  61  68 W6        30.19R
MASON CITY     MOSUNNY   73  61  65 SE7       30.18S
FOREST CITY *  SUNNY     73  61  64 CALM      30.17R
IOWA FALLS *     N/A     73  59  60 CALM      30.18R
$$

IAZ007>011-017>019-026>030-037>042-050>054-066-241600-
   NORTHEAST IOWA

CITY           SKY/WX    TMP DP  RH WIND       PRES   REMARKS
CEDAR RAPIDS   SUNNY     70  54  56 S8        30.17S
CHARLES CITY * SUNNY     72  61  68 CALM      30.17F
CLINTON *      SUNNY     70  52  52 SE7       30.21F
DECORAH *      SUNNY     68  61  77 VRB3      30.17S
DUBUQUE        SUNNY     67  54  63 S7        30.19S
MONTICELLO *   SUNNY     70  55  60 VRB7      30.18S
OELWEIN *      SUNNY     70  63  78 S8        30.18F
WATERLOO       SUNNY     73  58  59 S6        30.15F
$$

IAZ064-065-067-068-078-241600-
   EAST CENTRAL IOWA

CITY           SKY/WX    TMP DP  RH WIND       PRES   REMARKS
DAVENPORT      SUNNY     70  52  52 SE8       30.18S
IOWA CITY      SUNNY     69  56  62 S8        30.20R
MT. PLEASANT * SUNNY     72  52  49 E5        30.20R
MUSCATINE *    SUNNY     72  52  49 E6        30.18S
QUAD CITIES    SUNNY     70  52  52 SE9       30.17S
$$

IAZ062-063-075>077-085>089-095>099-241600-
   SOUTHEAST IOWA

CITY           SKY/WX    TMP DP  RH WIND       PRES   REMARKS
BURLINGTON     SUNNY     71  55  56 SE7       30.18R
FAIRFIELD *    SUNNY     70  57  64 S8        30.18F
FORT MADISON * SUNNY     72  55  56 E5        30.19S
KEOKUK *       SUNNY     70  54  56 E6        30.18R
OSKALOOSA *      N/A     72  63  73 SE7       30.17F
CENTERVILLE *  SUNNY     73  63  68 E6        30.18F
OTTUMWA        SUNNY     71  60  68 SE7       30.16F
WASHINGTON *   SUNNY     70  55  60 S9        30.19R
$$

ABBREVIATIONS USED IN REMARKS
   TC - TEMPERATURES IN CELSIUS
  WCI - WIND CHILL INDEX
   HX - HEAT INDEX
  VSB - VISIBILITY
$$




USA.gov is the U.S. government's official web portal to all federal, state and local government web resources and services.